map of FOE home
FOE - Airport
Location
City:  Topeka, Kansas, United States
Name:Topeka Regional
ICAO:KFOE
IATA:FOE
FAA LID:FOE

Details
Type:Airport (Part 139 Class IV)
Use:Public/Civil
Latitude:3857'03"N (38.950944)
Longitude:9539'49"W (-95.663610)
Datum:WGS 1984
Elevation:1077 ft (328 m)
Variation:2.40E (WMM2015 magnetic declination)
-0.10 annual change
Runways:2
Longest:12803 × 200 ft (3902 × 61 m), paved

Time
Time Zone:UTC-6 (DST-5)
Local Time:

Weather
METAR:KFOE 211453Z 28010KT 10SM OVC014 16/13 A3009 RMK AO2 SLP186 T01610133 51008
TAF:KFOE 211122Z 2112/2212 28008KT P6SM OVC007
FM211500 30007KT P6SM BKN013
FM211800 29006KT P6SM BKN040
FM212000 29006KT P6SM FEW250

Related Locations
Nearby:
Farthest:YAUG: 10709 mi / 17235 km
Augusta [Augusta Airport], WA, AU

Find:

   beyond  
but within

Other Information
Maps:
Delays:
NOTAMs:
Links:
Sources:

  
flag of United States
flag of Kansas
  

Airport Diagram

Airport diagram for FOE

Airport diagram PDF

Sectional Chart

Flight Planning
at skyvector.com

Satellite Image

Google Maps Satellite view

 

Copyright © 2004-2018 Karl L. Swartz. All rights reserved.
The Great Circle Mapper name and logo are trademarks of the Great Circle Mapper.
All other trademarks mentioned herein belong to their respective owners.
Please see credits for attibutions and further copyright information.

  Follow gcmap on Facebook Follow gcmap on Twitter Follow gcmap on Google+ GCmap on LinkedIn

hCard Microformat

Geo Microformat